Weather History for KUTA - April, 2014

Change the Weather History Date:

Saturday, April 5, 2014

  Actual Average (KMEM) Record (KMEM)
Temperature  
Mean Temperature 47 °F 60 °F  
Max Temperature 53 °F 70 °F 90 °F (1893)
Min Temperature 41 °F 50 °F 29 °F (1944)
Degree Days  
Heating Degree Days 18 7  
Month to date heating degree days 36  
Since 1 July heating degree days 2844  
Cooling Degree Days 0 2  
Month to date cooling degree days 8  
Year to date cooling degree days 28  
Moisture  
Dew Point 38 °F    
Average Humidity 67    
Maximum Humidity 87    
Minimum Humidity 51    
Precipitation  
Precipitation 0.00 in 0.17 in 2.35 in (1955)
Month to date precipitation 0.86  
Year to date precipitation 14.39  
Snow  
Snow 0.00 in 0.00 in T in (1955)
Month to date snowfall 0.0  
Since 1 July snowfall 3.8  
Snow Depth -    
Sea Level Pressure  
Sea Level Pressure 30.15 in    
Wind  
Wind Speed 7 mph (North)    
Max Wind Speed 10 mph    
Max Gust Speed -    
Visibility 10 miles    
Events      
T = Trace of Precipitation, MM = Missing Value Source: NWS Daily Summary

Daily Weather History Graph

Daily Weather History Graph

Search for Another Location

Airport or City:

Trip Planner

Search our weather history database for the weather conditions in past years. The results will help you decide how hot, cold, wet, or windy it might be!

Date:

Astronomy

Apr. 05, 2014 Rise Set
Actual Time 6:42 AM CDT 7:25 PM CDT
Civil Twilight 6:17 AM CDT 7:51 PM CDT
Nautical Twilight 5:47 AM CDT 8:21 PM CDT
Astronomical Twilight 5:16 AM CDT 8:52 PM CDT
Moon 10:59 AM CDT (4/5) 12:27 AM CDT (4/5)
Length of Visible Light 13h 33m
Length of Day
12h 42m
Waxing Crescent, 34% of the Moon is Illuminated
Apr 5
Waxing Crescent
Apr 7
First Quarter
Apr 15
Full
Apr 22
Last Quarter
Apr 29
New

Hourly Weather History & Observations

Time (CDT) Temp. Windchill Dew Point Humidity Pressure Visibility Wind Dir Wind Speed Gust Speed Precip Events Conditions
12:15 AM 44.6 °F 40.7 °F 37.4 °F 76% 30.14 in 10.0 mi North 6.9 mph - N/A   Clear
12:35 AM 44.6 °F 41.4 °F 39.2 °F 81% 30.15 in 10.0 mi North 5.8 mph - N/A   Clear
12:55 AM 46.4 °F 41.9 °F 37.4 °F 71% 30.15 in 10.0 mi North 9.2 mph - N/A   Clear
1:15 AM 46.4 °F 41.9 °F 37.4 °F 71% 30.15 in 10.0 mi North 9.2 mph - N/A   Clear
1:35 AM 46.4 °F 41.9 °F 37.4 °F 71% 30.15 in 10.0 mi North 9.2 mph - N/A   Clear
1:55 AM 44.6 °F 40.7 °F 37.4 °F 76% 30.15 in 10.0 mi North 6.9 mph - N/A   Clear
2:15 AM 44.6 °F 40.7 °F 37.4 °F 76% 30.14 in 10.0 mi North 6.9 mph - N/A   Clear
2:35 AM 44.6 °F 40.7 °F 37.4 °F 76% 30.14 in 10.0 mi North 6.9 mph - N/A   Clear
2:55 AM 44.6 °F 40.7 °F 35.6 °F 71% 30.15 in 10.0 mi North 6.9 mph - N/A   Clear
3:15 AM 44.6 °F 40.7 °F 37.4 °F 76% 30.16 in 10.0 mi North 6.9 mph - N/A   Clear
3:35 AM 42.8 °F 39.3 °F 37.4 °F 81% 30.15 in 10.0 mi North 5.8 mph - N/A   Clear
3:55 AM 42.8 °F 39.3 °F 37.4 °F 81% 30.16 in 10.0 mi North 5.8 mph - N/A   Clear
4:15 AM 42.8 °F 39.3 °F 37.4 °F 81% 30.15 in 10.0 mi North 5.8 mph - N/A   Clear
4:35 AM 42.8 °F 38.6 °F 37.4 °F 81% 30.16 in 10.0 mi North 6.9 mph - N/A   Clear
4:55 AM 42.8 °F 39.3 °F 37.4 °F 81% 30.16 in 10.0 mi North 5.8 mph - N/A   Clear
5:15 AM 42.8 °F 38.6 °F 37.4 °F 81% 30.16 in 10.0 mi NNE 6.9 mph - N/A   Clear
5:35 AM 41.0 °F 37.1 °F 37.4 °F 87% 30.17 in 10.0 mi North 5.8 mph - N/A   Clear
5:55 AM 42.8 °F 38.0 °F 35.6 °F 76% 30.16 in 10.0 mi North 8.1 mph - N/A   Clear
6:15 AM 41.0 °F 37.1 °F 35.6 °F 81% 30.17 in 10.0 mi North 5.8 mph - N/A   Clear
6:35 AM 41.0 °F 37.1 °F 35.6 °F 81% 30.18 in 10.0 mi North 5.8 mph - N/A   Clear
6:55 AM 41.0 °F 38.0 °F 35.6 °F 81% 30.18 in 10.0 mi North 4.6 mph - N/A   Clear
7:15 AM 41.0 °F 37.1 °F 35.6 °F 81% 30.18 in 10.0 mi NNE 5.8 mph - N/A   Clear
7:35 AM 42.8 °F 39.3 °F 35.6 °F 76% 30.19 in 10.0 mi North 5.8 mph - N/A   Clear
7:55 AM 44.6 °F 40.2 °F 35.6 °F 71% 30.20 in 10.0 mi NNE 8.1 mph - N/A   Clear
8:15 AM 44.6 °F 39.7 °F 35.6 °F 71% 30.20 in 10.0 mi NNE 9.2 mph - N/A   Clear
8:35 AM 46.4 °F 41.9 °F 35.6 °F 66% 30.21 in 10.0 mi NNE 9.2 mph - N/A   Clear
8:55 AM 46.4 °F 41.5 °F 35.6 °F 66% 30.20 in 10.0 mi NNE 10.4 mph - N/A   Clear
9:15 AM 46.4 °F 41.9 °F 35.6 °F 66% 30.21 in 10.0 mi NNE 9.2 mph - N/A   Clear
9:35 AM 48.2 °F - 35.6 °F 62% 30.21 in 10.0 mi NNE 9.2 mph - N/A   Clear
9:55 AM 48.2 °F - 35.6 °F 62% 30.21 in 10.0 mi NE 6.9 mph - N/A   Clear
10:15 AM 50.0 °F - 35.6 °F 58% 30.21 in 10.0 mi NE 6.9 mph - N/A   Clear
10:35 AM 50.0 °F - 35.6 °F 58% 30.21 in 10.0 mi NNE 8.1 mph - N/A   Clear
10:55 AM 50.0 °F - 37.4 °F 62% 30.21 in 10.0 mi NNE 6.9 mph - N/A   Clear
11:15 AM 50.0 °F - 35.6 °F 58% 30.20 in 10.0 mi ENE 6.9 mph - N/A   Clear
11:35 AM 50.0 °F - 33.8 °F 54% 30.20 in 10.0 mi NNE 6.9 mph - N/A   Clear
11:55 AM 51.8 °F - 35.6 °F 54% 30.22 in 10.0 mi Calm Calm - N/A   Clear
12:15 PM 51.8 °F - 35.6 °F 54% 30.21 in 10.0 mi North 3.5 mph - N/A   Clear
12:35 PM 51.8 °F - 35.6 °F 54% 30.20 in 10.0 mi NE 3.5 mph - N/A   Clear
12:55 PM 51.8 °F - 35.6 °F 54% 30.20 in 10.0 mi NNW 3.5 mph - N/A   Clear
1:15 PM 53.6 °F - 35.6 °F 51% 30.19 in 10.0 mi NNW 3.5 mph - N/A   Clear
1:35 PM 53.6 °F - 37.4 °F 54% 30.18 in 10.0 mi North 10.4 mph - N/A   Clear
1:55 PM 53.6 °F - 35.6 °F 51% 30.18 in 10.0 mi North 6.9 mph - N/A   Clear
2:15 PM 53.6 °F - 35.6 °F 51% 30.16 in 10.0 mi NNE 6.9 mph - N/A   Clear
2:35 PM 53.6 °F - 37.4 °F 54% 30.15 in 10.0 mi North 10.4 mph - N/A   Clear
2:55 PM 53.6 °F - 37.4 °F 54% 30.14 in 10.0 mi North 9.2 mph - N/A   Clear
3:15 PM 53.6 °F - 37.4 °F 54% 30.13 in 10.0 mi North 9.2 mph - N/A   Clear
3:35 PM 53.6 °F - 35.6 °F 51% 30.12 in 10.0 mi North 8.1 mph - N/A   Clear
3:55 PM 53.6 °F - 37.4 °F 54% 30.12 in 10.0 mi North 8.1 mph - N/A   Clear
4:15 PM 53.6 °F - 37.4 °F 54% 30.12 in 10.0 mi North 8.1 mph - N/A   Clear
4:35 PM 53.6 °F - 37.4 °F 54% 30.12 in 10.0 mi NNW 6.9 mph - N/A   Clear
4:55 PM 53.6 °F - 37.4 °F 54% 30.11 in 10.0 mi NNW 5.8 mph - N/A   Clear
5:15 PM 53.6 °F - 37.4 °F 54% 30.11 in 10.0 mi NNW 6.9 mph - N/A   Clear
5:35 PM 53.6 °F - 37.4 °F 54% 30.11 in 10.0 mi NNW 5.8 mph - N/A   Clear
5:55 PM 53.6 °F - 37.4 °F 54% 30.11 in 10.0 mi NNW 6.9 mph - N/A   Clear
6:15 PM 53.6 °F - 39.2 °F 58% 30.10 in 10.0 mi North 6.9 mph - N/A   Clear
6:35 PM 51.8 °F - 39.2 °F 62% 30.09 in 10.0 mi North 6.9 mph - N/A   Clear
6:55 PM 51.8 °F - 41.0 °F 67% 30.10 in 10.0 mi North 8.1 mph - N/A   Clear
7:15 PM 51.8 °F - 41.0 °F 67% 30.08 in 10.0 mi North 6.9 mph - N/A   Clear
7:35 PM 51.8 °F - 41.0 °F 67% 30.09 in 10.0 mi North 9.2 mph - N/A   Clear
7:55 PM 50.0 °F - 42.8 °F 76% 30.09 in 10.0 mi North 6.9 mph - N/A   Clear
8:15 PM 50.0 °F - 42.8 °F 76% 30.09 in 10.0 mi North 4.6 mph - N/A   Clear
8:35 PM 50.0 °F - 42.8 °F 76% 30.10 in 10.0 mi North 3.5 mph - N/A   Clear
8:55 PM 50.0 °F - 42.8 °F 76% 30.10 in 10.0 mi North 4.6 mph - N/A   Clear
9:15 PM 50.0 °F - 42.8 °F 76% 30.11 in 10.0 mi North 4.6 mph - N/A   Clear
9:35 PM 50.0 °F - 42.8 °F 76% 30.11 in 10.0 mi Calm Calm - N/A   Clear
9:55 PM 50.0 °F - 44.6 °F 82% 30.10 in 10.0 mi North 3.5 mph - N/A   Clear
10:15 PM 50.0 °F - 42.8 °F 76% 30.09 in 10.0 mi NNE 8.1 mph - N/A   Clear
10:35 PM 50.0 °F - 41.0 °F 71% 30.09 in 10.0 mi NNE 6.9 mph - N/A   Scattered Clouds
10:55 PM 50.0 °F - 41.0 °F 71% 30.10 in 10.0 mi NNE 3.5 mph - N/A   Scattered Clouds
11:15 PM 50.0 °F - 41.0 °F 71% 30.10 in 10.0 mi NNE 3.5 mph - N/A   Clear
11:35 PM 50.0 °F - 42.8 °F 76% 30.10 in 10.0 mi NE 3.5 mph - N/A   Clear
11:55 PM 50.0 °F - 41.0 °F 71% 30.09 in 10.0 mi Calm Calm - N/A   Clear